Terminal Aerodrome Forecast
Issued by NWS Anchorage, AK

Home | Current Version | Previous Version | Text Only | Print | Product List | Glossary On
Versions: 1 2 3 4 5 6 7 8 9 10 11 12 13 14 15
000
FTAK31 PANC 201740
TAFANC
TAF
PANC 201740Z 2018/2124 VRB05KT P6SM SKC
      TEMPO 2100/2102 16012G22KT
     FM210200 16012G22KT P6SM SCT060 BKN120 WS015/13038KT
     FM210800 17005KT P6SM SCT200=

USA.gov is the U.S. government's official web portal to all federal, state and local government web resources and services.